Time,TemperatureF,DewpointF,PressureIn,WindDirection,WindDirectionDegrees,WindSpeedMPH,WindSpeedGustMPH,Humidity,HourlyPrecipIn,Conditions,Clouds,dailyrainin,SoftwareType,DateUTC
2014-04-19 00:05:00,44.4,43.0,29.97,West,267,0.0,0.0,95,0.00,,,0.00,weatherlink.com 1.10,2014-04-19 07:05:00,
2014-04-19 00:20:00,44.1,43.0,29.98,West,267,0.0,0.0,96,0.00,,,0.00,weatherlink.com 1.10,2014-04-19 07:20:00,
2014-04-19 00:35:00,43.8,43.0,29.98,West,267,0.0,0.0,96,0.00,,,0.00,weatherlink.com 1.10,2014-04-19 07:35:00,
2014-04-19 00:50:00,43.7,43.0,29.99,West,267,0.0,0.0,97,0.00,,,0.00,weatherlink.com 1.10,2014-04-19 07:50:00,
2014-04-19 01:05:00,43.5,43.0,29.99,West,267,0.0,0.0,97,0.00,,,0.00,weatherlink.com 1.10,2014-04-19 08:05:00,
2014-04-19 01:20:00,43.3,43.0,30.00,West,267,0.0,0.0,97,0.00,,,0.00,weatherlink.com 1.10,2014-04-19 08:20:00,
2014-04-19 01:35:00,43.1,42.0,30.01,West,267,0.0,0.0,97,0.00,,,0.00,weatherlink.com 1.10,2014-04-19 08:35:00,
2014-04-19 01:50:00,42.9,42.0,30.00,West,267,0.0,0.0,97,0.00,,,0.00,weatherlink.com 1.10,2014-04-19 08:50:00,
2014-04-19 02:05:00,42.9,42.0,30.00,West,267,0.0,0.0,98,0.00,,,0.00,weatherlink.com 1.10,2014-04-19 09:05:00,
2014-04-19 02:20:00,42.5,42.0,30.00,West,267,0.0,0.0,97,0.00,,,0.00,weatherlink.com 1.10,2014-04-19 09:20:00,
2014-04-19 02:35:00,42.1,41.0,30.00,West,267,0.0,0.0,97,0.00,,,0.00,weatherlink.com 1.10,2014-04-19 09:35:00,
2014-04-19 02:50:00,41.7,41.0,30.01,WSW,249,0.0,0.0,98,0.00,,,0.00,weatherlink.com 1.10,2014-04-19 09:50:00,
2014-04-19 03:05:00,41.4,41.0,30.01,WSW,249,0.0,1.0,97,0.00,,,0.00,weatherlink.com 1.10,2014-04-19 10:05:00,
2014-04-19 03:21:00,41.2,40.0,30.02,WSW,249,0.0,2.0,97,0.00,,,0.00,weatherlink.com 1.10,2014-04-19 10:21:00,
2014-04-19 03:35:00,41.1,41.0,30.00,WSW,249,0.0,1.0,98,0.00,,,0.00,weatherlink.com 1.10,2014-04-19 10:35:00,
2014-04-19 03:51:00,41.6,41.0,30.01,WSW,246,0.0,2.0,99,0.00,,,0.00,weatherlink.com 1.10,2014-04-19 10:51:00,
2014-04-19 04:06:00,41.2,41.0,30.01,WSW,246,0.0,0.0,98,0.00,,,0.00,weatherlink.com 1.10,2014-04-19 11:06:00,
2014-04-19 04:21:00,40.8,40.0,30.01,WSW,246,0.0,0.0,98,0.00,,,0.00,weatherlink.com 1.10,2014-04-19 11:21:00,
2014-04-19 04:36:00,41.0,41.0,30.01,WSW,246,0.0,0.0,99,0.00,,,0.00,weatherlink.com 1.10,2014-04-19 11:36:00,
2014-04-19 04:51:00,41.6,41.0,30.01,South,173,0.0,2.0,99,0.00,,,0.00,weatherlink.com 1.10,2014-04-19 11:51:00,
2014-04-19 05:06:00,41.9,42.0,30.01,SSE,151,0.0,3.0,99,0.00,,,0.00,weatherlink.com 1.10,2014-04-19 12:06:00,
2014-04-19 05:21:00,41.7,41.0,30.01,South,190,0.0,1.0,98,0.00,,,0.00,weatherlink.com 1.10,2014-04-19 12:21:00,
2014-04-19 05:36:00,41.6,41.0,30.01,South,190,0.0,0.0,98,0.00,,,0.00,weatherlink.com 1.10,2014-04-19 12:36:00,
2014-04-19 05:51:00,41.3,41.0,30.02,South,190,0.0,0.0,98,0.00,,,0.00,weatherlink.com 1.10,2014-04-19 12:51:00,
2014-04-19 06:06:00,41.2,41.0,30.03,South,191,0.0,0.0,98,0.00,,,0.00,weatherlink.com 1.10,2014-04-19 13:06:00,
2014-04-19 06:21:00,40.9,40.0,30.03,South,190,0.0,0.0,98,0.00,,,0.00,weatherlink.com 1.10,2014-04-19 13:21:00,
2014-04-19 06:36:00,41.1,41.0,30.04,South,190,0.0,0.0,99,0.00,,,0.00,weatherlink.com 1.10,2014-04-19 13:36:00,
2014-04-19 06:51:00,41.1,41.0,30.05,South,191,0.0,0.0,99,0.00,,,0.00,weatherlink.com 1.10,2014-04-19 13:51:00,
2014-04-19 07:06:00,41.0,41.0,30.05,South,191,0.0,0.0,98,0.00,,,0.00,weatherlink.com 1.10,2014-04-19 14:06:00,
2014-04-19 07:21:00,40.8,40.0,30.05,South,191,0.0,0.0,98,0.00,,,0.00,weatherlink.com 1.10,2014-04-19 14:21:00,
2014-04-19 07:36:00,40.6,40.0,30.05,South,191,0.0,0.0,98,0.00,,,0.00,weatherlink.com 1.10,2014-04-19 14:36:00,
2014-04-19 07:51:00,40.4,40.0,30.04,South,190,0.0,1.0,98,0.00,,,0.00,weatherlink.com 1.10,2014-04-19 14:51:00,
2014-04-19 08:06:00,40.3,40.0,30.04,South,190,0.0,1.0,98,0.00,,,0.00,weatherlink.com 1.10,2014-04-19 15:06:00,
2014-04-19 08:21:00,40.2,40.0,30.04,South,190,0.0,1.0,98,0.00,,,0.00,weatherlink.com 1.10,2014-04-19 15:21:00,
2014-04-19 08:36:00,40.5,40.0,30.05,South,190,0.0,0.0,99,0.00,,,0.00,weatherlink.com 1.10,2014-04-19 15:36:00,
2014-04-19 08:51:00,41.4,41.0,30.05,South,190,0.0,0.0,99,0.00,,,0.00,weatherlink.com 1.10,2014-04-19 15:51:00,
2014-04-19 09:06:00,42.4,42.0,30.05,South,190,0.0,0.0,99,0.00,,,0.00,weatherlink.com 1.10,2014-04-19 16:06:00,
2014-04-19 09:21:00,43.5,43.0,30.05,South,190,0.0,1.0,99,0.00,,,0.00,weatherlink.com 1.10,2014-04-19 16:21:00,
2014-04-19 09:36:00,45.4,45.0,30.06,South,189,0.0,1.0,98,0.00,,,0.00,weatherlink.com 1.10,2014-04-19 16:36:00,
2014-04-19 09:51:00,48.3,47.0,30.06,SE,144,1.0,2.0,96,0.00,,,0.00,weatherlink.com 1.10,2014-04-19 16:51:00,
2014-04-19 10:06:00,49.8,46.0,30.07,ESE,111,0.0,2.0,86,0.00,,,0.00,weatherlink.com 1.10,2014-04-19 17:06:00,
2014-04-19 10:21:00,51.5,47.0,30.08,SW,232,0.0,2.0,83,0.00,,,0.00,weatherlink.com 1.10,2014-04-19 17:21:00,
2014-04-19 10:36:00,52.9,47.0,30.08,West,266,0.0,3.0,81,0.00,,,0.00,weatherlink.com 1.10,2014-04-19 17:36:00,
2014-04-19 10:51:00,55.1,47.0,30.08,WSW,240,0.0,1.0,73,0.00,,,0.00,weatherlink.com 1.10,2014-04-19 17:51:00,
2014-04-19 11:06:00,59.1,48.0,30.09,South,173,0.0,3.0,66,0.00,,,0.00,weatherlink.com 1.10,2014-04-19 18:06:00,
2014-04-19 11:22:00,60.9,46.0,30.09,West,261,3.0,6.0,59,0.00,,,0.00,weatherlink.com 1.10,2014-04-19 18:22:00,
2014-04-19 11:37:00,60.3,46.0,30.11,WNW,301,5.0,9.0,60,0.00,,,0.00,weatherlink.com 1.10,2014-04-19 18:37:00,
2014-04-19 11:52:00,58.2,46.0,30.12,WSW,239,1.0,12.0,64,0.00,,,0.00,weatherlink.com 1.10,2014-04-19 18:52:00,
2014-04-19 12:07:00,57.1,48.0,30.12,West,273,0.0,5.0,72,0.00,,,0.00,weatherlink.com 1.10,2014-04-19 19:07:00,
2014-04-19 12:22:00,57.4,49.0,30.13,SSE,154,0.0,1.0,73,0.00,,,0.00,weatherlink.com 1.10,2014-04-19 19:22:00,